Theta_e
287 287 287 287 288 288 289 290 290 290 291 291 291 292 290 289 290 290 290 290 290 290 291 291 291 292 290 290 291 291 291 290 288 291 292 293 292 293 293 295 295 296 297
285 285 285 285 285 285 286 286 287 287 288 288 289 288 287 287 287 287 286 287 287 286 287 288 288 288 287 288 289 288 289 289 288 286 288 289 289 291 291 290 292 294 294
283 283 282 282 282 283 283 284 284 284 284 285 285 285 284 285 284 284 284 284 284 285 286 286 285 286 284 285 286 285 286 286 287 285 284 287 287 288 287 289 288 289 292
281 281 280 280 280 281 281 281 282 282 282 282 282 283 283 283 282 282 281 282 282 283 284 284 283 282 282 282 282 282 283 282 283 282 281 281 283 284 283 283 282 285 285
280 280 279 280 280 280 280 280 280 280 280 280 280 281 281 282 282 280 280 280 280 280 280 282 282 281 283 283 282 281 280 280 279 278 278 278 278 279 279 281 280 281 281
279 278 279 279 279 279 279 278 279 278 278 278 278 278 280 281 283 282 280 279 279 279 279 279 280 280 281 281 281 282 281 279 278 277 277 276 277 278 278 278 278 277 275
279 278 278 278 278 277 277 277 277 276 276 276 277 277 278 279 282 281 280 279 278 278 278 278 278 278 278 278 280 280 279 280 280 278 276 276 276 277 278 277 277 277 277
277 277 277 277 277 276 276 276 275 276 275 275 276 276 278 279 281 280 279 277 277 277 277 276 276 276 277 278 278 277 277 278 278 278 277 277 278 278 278 278 277 277 278
276 276 276 277 276 275 275 274 275 275 276 275 276 276 275 277 279 280 277 276 275 275 275 275 275 275 278 280 277 275 275 275 277 279 279 279 279 279 279 277 275 274 273
275 275 276 276 275 274 274 274 275 275 275 275 275 275 275 273 278 278 276 275 274 274 274 275 276 275 278 279 275 273 271 273 274 273 273 274 275 275 276 275 274 271 270
275 274 274 274 274 274 274 274 274 274 274 274 272 273 273 273 274 276 277 275 274 273 273 273 273 276 277 276 276 272 273 274 271 270 270 270 271 272 272 273 272 271 268
272 272 272 272 273 274 273 273 273 273 272 271 271 270 271 271 273 274 275 275 275 272 272 272 274 276 275 274 273 274 274 271 268 267 266 267 268 269 270 270 271 271 271
270 270 271 272 273 273 272 271 271 271 270 270 269 268 268 269 270 271 273 273 273 272 273 274 272 272 271 270 271 271 269 267 266 264 264 266 268 268 269 268 269 270 270
269 269 270 270 270 271 272 271 270 269 269 268 268 267 267 267 268 270 272 272 272 272 270 267 268 268 268 268 267 267 266 266 265 264 264 266 266 265 265 266 265 266 265
269 269 269 269 269 269 269 270 269 270 270 268 268 267 266 265 268 272 272 271 269 271 260 258 260 262 262 263 263 263 264 264 263 263 262 262 263 264 264 265 265 264 262
268 268 268 268 268 268 268 268 271 271 271 271 271 269 269 269 270 271 272 272 272 269 253 252 256 259 259 260 260 260 261 261 262 262 261 261 261 261 262 262 263 262 261
268 267 267 267 266 265 265 265 263 266 268 269 269 268 268 269 269 270 271 271 267 262 249 251 254 257 257 259 259 259 258 260 261 260 260 260 260 260 260 260 261 261 261
266 265 265 265 265 264 263 263 262 260 258 259 263 265 267 267 268 269 270 264 253 254 249 249 250 253 255 256 257 257 257 258 258 258 258 258 258 258 258 259 259 259 260
263 263 264 264 264 263 262 261 260 258 257 255 254 259 261 264 266 267 269 254 250 249 248 249 252 253 254 255 255 255 255 255 256 256 256 256 257 257 257 258 259 259 260
263 263 262 262 261 261 261 260 259 257 254 251 251 251 252 252 250 251 252 249 248 251 252 251 252 251 251 253 253 252 253 253 254 255 255 256 256 257 257 257 258 258 258
261 261 261 260 260 259 259 258 258 257 255 253 254 256 261 254 256 252 251 251 251 251 251 251 251 251 251 251 250 251 252 253 254 254 254 255 256 255 257 257 257 258 258
260 259 258 257 257 257 256 256 256 255 254 252 252 253 263 256 252 253 253 253 252 251 251 251 252 251 251 250 250 250 252 252 252 253 253 254 255 255 256 256 256 257 258
257 256 255 254 254 255 253 254 254 253 252 251 252 253 250 252 252 251 252 253 252 252 251 250 251 252 252 252 253 253 252 252 253 253 253 253 253 254 254 254 255 256 258
255 254 254 254 254 254 253 252 253 253 252 251 250 251 252 252 252 252 252 253 252 252 251 251 252 252 253 252 253 253 253 253 253 253 252 252 252 253 253 254 256 258 260
254 254 255 255 253 254 253 252 251 250 249 250 251 251 252 252 252 252 253 253 252 252 252 252 252 252 251 251 252 252 253 255 254 254 253 252 251 252 253 256 259 260 261
255 255 254 253 251 251 250 250 250 250 250 251 251 251 252 252 252 253 253 252 252 253 252 252 252 251 251 252 252 253 253 256 255 256 255 255 255 257 258 259 259 260 262
Wind_Speed
6 5 6 6 7 7 7 7 7 7 7 8 7 8 8 8 8 8 7 8 8 7 8 7 8 9 6 6 4 4 5 4 5 4 5 5 7 11 12 11 11 11 10
5 6 6 6 6 7 7 8 7 8 7 8 8 9 9 10 9 9 9 8 8 8 7 8 9 7 8 7 5 7 5 5 3 8 4 6 7 8 9 12 10 9 10
6 6 6 6 6 8 8 8 7 7 7 8 8 9 9 9 8 8 7 7 7 6 6 8 8 8 8 6 6 7 6 7 6 6 7 6 5 7 11 9 10 9 8
6 6 6 6 6 6 6 7 7 6 8 8 8 9 9 8 8 7 7 7 6 7 8 7 8 9 8 8 7 8 8 7 7 7 8 8 8 10 8 12 14 10 13
8 7 6 6 6 6 7 7 6 7 7 7 8 8 7 8 6 5 5 5 6 6 7 7 8 9 13 11 6 6 7 6 6 7 7 8 9 11 12 11 13 14 13
9 9 7 7 6 6 7 7 8 7 7 8 8 8 8 6 13 12 8 5 6 6 6 6 5 7 7 12 13 14 10 7 8 7 7 9 10 11 10 12 13 13 12
9 8 8 8 8 7 6 6 7 6 6 7 7 8 7 5 13 12 9 4 5 5 6 6 5 5 6 7 10 11 9 12 12 9 10 9 12 12 13 15 14 14 14
9 9 8 7 8 7 6 6 6 5 6 6 7 7 7 6 12 10 7 5 4 5 6 6 6 7 7 8 8 9 8 7 7 7 9 10 11 12 12 13 15 17 12
10 9 8 8 8 8 7 6 5 6 6 5 6 6 6 8 10 11 6 5 4 4 5 5 6 6 11 15 9 10 9 8 10 14 15 19 21 20 18 11 10 12 14
11 11 9 8 8 7 7 6 4 5 6 6 8 7 8 6 10 10 6 3 3 3 3 4 6 8 13 14 10 9 9 9 10 11 10 11 14 13 18 10 9 11 12
12 10 9 8 7 7 7 6 5 5 6 6 7 6 7 6 6 8 9 4 4 3 3 4 4 12 14 15 14 7 10 11 11 8 8 7 9 8 7 8 9 9 10
13 11 9 9 6 6 7 6 6 7 7 6 6 5 4 4 5 5 5 7 7 4 4 4 6 15 16 14 9 15 16 13 6 6 7 7 8 8 8 10 12 12 11
12 11 9 8 8 8 7 7 6 6 5 5 5 5 4 2 1 2 3 7 6 4 3 8 12 13 12 8 13 14 11 6 6 6 7 7 8 9 12 11 11 13 13
12 10 9 9 8 7 6 6 5 5 5 5 5 4 3 2 1 3 0 2 4 4 6 5 8 8 9 8 7 8 7 6 7 7 7 8 8 8 8 9 10 10 11
11 10 9 7 8 7 6 5 5 4 4 5 3 4 3 2 3 2 2 1 1 5 4 2 3 4 4 4 4 5 5 6 6 7 8 9 9 9 9 9 9 10 11
11 8 7 7 6 6 6 6 8 7 6 6 6 4 2 2 2 3 5 5 8 9 4 2 2 3 4 5 5 5 5 6 6 8 8 9 9 10 10 10 10 10 12
8 8 6 6 6 7 7 7 7 4 4 4 4 1 2 2 3 4 5 4 6 5 2 1 2 3 4 5 5 5 6 6 8 7 8 9 9 10 12 10 10 11 12
8 9 6 5 5 5 4 4 4 4 3 2 1 2 4 3 6 6 8 5 3 4 2 3 3 3 5 5 5 5 6 7 7 8 8 8 9 9 10 11 11 12 13
6 5 6 5 5 6 4 3 3 3 3 2 2 3 3 6 8 8 8 3 2 3 3 3 4 5 6 5 5 6 7 7 7 8 8 8 9 9 11 11 11 16 17
5 6 5 5 5 5 5 4 3 3 2 2 2 3 2 3 2 2 2 2 2 4 4 6 5 5 5 6 6 6 6 7 7 7 8 8 8 9 11 12 12 13 13
4 5 6 4 5 4 4 4 3 3 3 3 3 3 8 5 5 4 3 4 5 6 6 6 5 5 5 6 5 5 6 7 8 8 8 9 9 10 11 11 13 13 14
5 5 4 4 3 4 3 3 3 3 3 3 3 3 11 2 2 5 6 6 5 6 5 5 6 5 6 5 5 5 7 8 8 8 9 9 9 10 11 12 12 12 14
5 5 4 3 3 4 3 3 3 3 3 4 4 4 3 5 5 6 7 7 6 5 5 5 7 7 5 6 6 7 8 9 9 8 9 10 10 10 11 12 13 13 13
5 5 5 4 3 4 3 4 4 5 5 4 5 6 6 7 6 8 7 7 6 7 5 6 6 9 8 7 7 7 9 9 8 9 10 10 11 13 12 12 14 17 15
5 5 6 6 5 5 4 5 4 5 5 5 6 6 7 7 7 7 7 6 7 6 7 6 6 9 11 13 13 13 14 18 15 15 9 11 14 17 15 13 16 16 18
6 6 5 4 4 4 5 5 6 6 7 7 7 7 7 7 8 8 7 7 7 7 8 6 8 11 12 11 14 15 17 19 16 18 12 11 12 12 12 15 20 15 19
Wind_Direction
84 79 78 67 66 67 78 76 76 76 74 76 76 80 76 64 56 60 64 47 58 44 35 45 36 39 27 27 21 23 21 356 305 315 1 348 353 347 333 333 327 322 321
94 90 86 86 81 83 81 81 73 80 69 72 75 74 70 66 62 66 69 59 58 50 36 42 43 36 36 19 25 22 13 3 323 311 306 342 341 333 318 318 322 325 316
111 104 89 79 85 91 89 85 74 77 71 69 78 77 70 60 54 54 58 59 57 50 42 46 35 34 38 9 21 22 16 349 338 320 311 335 322 325 323 321 315 311 315
113 103 97 90 92 95 92 85 83 78 83 78 76 86 75 67 53 44 46 48 48 48 44 42 44 43 34 15 18 9 6 352 343 335 330 329 335 340 331 332 327 329 321
123 120 122 119 108 103 97 93 88 89 85 83 87 82 80 73 65 55 48 56 64 61 48 37 52 45 29 28 13 7 360 347 340 336 335 330 333 341 338 333 317 321 315
141 141 136 125 118 115 112 109 105 99 94 93 87 89 78 77 70 59 50 58 59 63 60 40 31 44 28 21 6 355 354 344 338 336 328 329 330 329 324 322 318 323 324
144 145 144 142 136 131 122 115 109 107 105 96 93 86 84 90 76 68 51 47 65 53 54 49 39 36 19 1 352 353 346 340 337 328 321 323 315 317 316 316 311 305 297
145 145 143 137 128 121 113 107 102 101 101 94 89 97 99 86 76 77 77 77 59 51 62 46 25 21 356 352 349 340 343 338 335 335 321 317 309 315 308 305 303 298 293
151 148 142 140 135 133 126 122 118 115 108 106 111 113 103 66 67 65 80 70 70 55 39 38 34 6 345 345 350 346 348 336 330 328 332 323 315 318 316 315 311 306 305
149 145 139 136 135 126 126 125 118 121 128 129 116 103 90 76 71 62 76 70 39 39 26 35 11 340 342 354 358 351 333 333 336 340 329 326 326 317 322 321 321 321 324
132 126 121 119 122 134 132 136 126 123 123 119 112 102 97 81 69 58 46 42 17 19 8 5 337 330 354 351 345 339 329 336 345 331 321 318 318 315 314 316 320 310 309
131 128 127 130 132 135 131 131 133 137 134 136 128 113 95 78 67 47 43 33 22 10 358 331 326 349 341 339 349 337 341 349 335 329 324 317 316 311 315 311 308 301 293
129 133 133 128 134 141 145 141 142 149 148 148 146 139 137 113 96 30 352 20 8 2 329 15 345 338 339 347 345 345 357 341 331 317 309 305 309 311 309 304 296 293 291
137 141 141 142 144 143 145 154 161 157 155 154 150 152 147 136 144 251 13 346 321 354 49 10 353 360 357 350 343 342 329 323 319 306 303 306 305 304 304 305 305 311 306
140 146 151 148 149 145 145 156 154 145 161 150 154 158 150 158 209 312 354 264 221 13 65 24 5 360 340 325 321 314 311 315 313 310 308 309 311 310 305 308 305 305 295
146 153 157 152 147 148 148 142 152 150 141 148 155 150 171 222 278 338 331 328 25 9 50 44 332 311 310 311 304 310 313 312 312 312 309 308 307 307 307 308 302 297 295
144 144 140 150 155 158 160 160 153 125 120 145 144 186 248 251 313 303 309 353 33 51 95 236 242 281 286 288 296 300 300 302 308 299 297 299 300 300 304 300 301 297 294
129 143 148 147 143 139 148 148 141 157 155 173 258 282 265 282 295 296 288 60 8 359 189 222 232 246 261 269 278 286 288 290 287 285 289 293 293 295 298 296 295 294 295
136 141 141 134 140 139 132 142 149 149 152 176 337 326 320 301 300 286 282 134 218 261 236 259 249 248 252 257 265 270 270 274 277 285 283 284 288 291 290 289 288 292 293
134 148 142 144 145 148 156 171 178 170 172 197 205 241 297 47 344 269 252 211 226 249 252 246 246 238 242 249 255 255 265 270 274 277 278 282 284 284 287 290 291 294 291
144 145 157 152 164 163 170 182 188 180 199 201 214 207 232 209 238 229 233 221 228 234 237 232 242 240 242 245 239 247 260 271 273 274 277 280 284 285 285 287 290 288 288
152 154 151 155 158 168 177 183 195 208 210 232 252 241 275 280 258 266 265 260 239 223 223 232 246 235 232 230 234 246 262 267 270 270 273 278 283 284 286 287 287 288 288
150 147 154 157 161 175 182 185 210 219 233 244 258 270 234 247 249 250 253 255 252 248 229 226 241 254 236 236 235 240 253 260 262 264 272 278 282 282 284 285 287 287 291
156 160 172 178 171 199 199 213 211 223 234 232 237 251 254 249 243 247 249 251 247 247 231 230 233 245 257 249 247 244 248 255 259 262 260 267 277 283 280 279 283 286 285
169 179 187 189 189 204 205 225 227 227 232 236 246 241 245 245 252 253 252 247 249 249 247 233 237 246 247 250 252 255 259 267 266 266 271 266 261 266 270 274 280 290 294
180 192 195 183 201 208 215 228 233 230 234 234 236 239 242 246 248 250 249 244 249 251 252 244 244 244 254 261 261 261 264 267 269 267 256 250 256 267 273 281 286 286 291